TITAN 3C TRANSTAGE DEB, 43515

Orbit data source: Space-Track

TITAN 3C TRANSTAGE DEB, 43515 is space debris in GEO originally from a launch on Sun, 09 Feb 1969 UTC launched from the Air Force Eastern Test Range (AFETR). Debris objects in space refer to the collection of defunct objects orbiting the Earth. Examples of debris include non-operational satellites, rocket bodies, and fragments generated from explosions, collisions, or faulty payload assembly.

Not visible in the next 10 days
TITAN 3C TRANSTAGE DEB details
Identifier
43515, 1969-013T
Orbit
GEO
Last TLE update23 hours ago
Origin
Flag of USUSAF SMC (US)
ManufacturerMartin Marietta
MissionSpacecraft
Bus & MotorUnknown
MassUnknown
Launch date (UTC)
1969-02-09 (56 years ago)
Launch vehicleUnknown
Launch site
Air Force Eastern Test Range (AFETR)
Object type
Payload
Rocket body
Debris
Shape & HBRUnknown
Radar Cross SectionRCS unknown

Expand to show TLE details & history

TLE from 23 hours ago
0 TITAN 3C TRANSTAGE DEB
1 43515U 69013T   24360.73654552 -.00000148  00000-0  00000-0 0  9993
2 43515   0.7831  15.2666 0310012 182.4757 161.1519  0.95445262 23080
Epoch: 2024-12-25T17:40Z
Definitive object data (Epoch: 2024-12-25T17:40:37.532Z)
Latitude-0.20475°
Longitude0.119°
Altitude38,472.51 km
Speed2.937 km/s
True Right ascension00h 00m 00s
True Declination0° 12' 16"
Sunlit
Object was in daylight at TLE epoch
Visualization TLE readout
Latitude-0.59949°
Longitude-33.11592°
Altitude38,013.812 km
Speed2.968 km/s
Apparent Right ascension22h 12m 13s
Apparent Declination-5° 47' 34"
Sunlit
Object is in daylight
Visualization observer readout
Local Sidereal Time15:45:08
Azimuth90.123° ESE
Elevation-8.903°
Doppler factor1
Orbital elements
Apogee altitude38,548.28 km
Perigee altitude35,846.493 km
Semi-major axis43,575.523 km
Eccentricity0.0310012
Inclination0.7831°
RAAN15.2666°
Arg. of periapsis182.4757°
True anomaly162.25884°
Mean anomaly161.1519°
Eccentric anomaly161.70935°
Mean motion0.2386 °/min
BSTARUnknown
Orbital period1508.77 mins
Loading historical data...
43515 neighbors
Authenticating...
Loading maneuver chart data...

TITAN 3C TRANSTAGE DEB Visibility forecast

Observer location: undefined°, undefined

TITAN 3C TRANSTAGE DEB is not visible in the next 10 days
Span
Click to sort rows by Start time (UTC) header in descending order
Start Az.
Max El. time (UTC)
Max El. Az.
Max El.
End time (UTC)
End Az.
|